Theta_e
330 330 331 331 330 332 333 334 335 338 342 344 345 345 352 350 349 349 349 348 348 349 348 349 349 348 348 347 347 347 347 347 347 347 347 347 347 348 348 347 347 346 347 348
328 330 330 332 332 333 332 334 336 337 340 342 340 344 350 349 348 348 346 346 347 347 348 349 349 348 348 348 347 347 347 347 347 347 348 348 349 350 351 350 349 348 348 347
328 330 331 333 332 333 332 333 334 336 340 339 342 344 349 347 347 347 345 346 346 347 347 347 349 348 348 348 347 347 347 348 348 349 348 349 349 351 355 354 353 352 351 349
327 327 330 330 331 331 332 332 334 337 339 341 339 343 345 343 344 345 346 345 346 346 345 346 346 347 347 348 347 349 350 350 350 350 350 350 351 353 354 355 353 355 354 352
327 327 328 329 330 331 331 332 333 336 332 328 333 341 342 339 342 347 348 347 346 346 347 349 348 349 348 347 346 348 350 350 351 350 352 353 354 354 355 354 354 355 354 353
323 324 326 325 327 328 330 331 328 326 325 329 332 338 340 341 343 344 348 349 347 345 345 342 348 348 347 348 350 350 350 353 353 353 353 356 355 357 355 352 352 351 352 351
321 323 324 326 326 325 328 325 329 331 330 330 330 334 341 337 339 342 350 349 344 341 341 343 346 348 347 347 346 350 353 353 354 355 351 348 359 353 350 351 352 350 348 345
322 324 324 325 325 325 325 327 329 333 330 332 336 340 344 340 343 346 349 348 346 341 340 342 344 343 339 343 348 349 345 353 355 351 346 348 349 342 341 343 340 340 344 342
320 323 323 326 326 328 328 331 326 325 327 335 339 344 344 345 346 345 344 344 344 343 342 339 341 340 339 343 346 347 339 335 347 345 342 346 348 347 347 346 346 347 349 347
320 322 323 324 325 325 330 328 333 327 336 345 346 345 340 349 350 346 345 344 344 343 342 341 342 343 345 342 341 340 344 336 345 345 346 346 347 347 346 347 349 348 347 346
317 320 324 324 324 324 322 328 325 326 331 341 346 344 337 346 348 346 345 343 341 344 343 344 347 344 342 344 337 341 336 337 342 345 346 347 346 346 347 347 347 345 345 346
317 317 321 322 321 322 325 326 326 329 331 336 336 339 338 341 343 342 345 342 344 349 350 347 346 344 347 344 341 342 337 339 340 341 338 337 336 336 336 334 333 332 332 331
317 316 320 322 319 324 329 329 325 327 329 339 337 338 337 339 343 342 345 341 347 348 347 348 348 345 346 344 341 339 339 340 338 334 332 331 330 329 327 326 325 325 323 322
322 314 318 322 320 329 334 332 329 327 330 334 338 340 341 341 343 342 339 337 345 345 346 345 345 344 342 341 341 339 336 334 333 332 330 327 324 324 320 315 314 314 315 316
318 319 321 322 321 333 335 333 330 330 328 336 337 340 341 340 340 341 343 344 345 344 343 342 339 337 336 336 335 334 333 333 331 328 325 324 319 312 313 317 319 320 321 322
316 323 332 335 333 334 336 333 331 332 334 336 338 340 336 339 340 340 346 349 346 344 343 339 336 337 336 335 334 332 331 329 327 325 320 313 315 318 318 319 320 321 321 321
319 328 328 332 334 334 335 336 334 336 335 336 338 335 334 338 341 340 346 348 346 341 344 339 337 337 336 333 331 330 328 326 322 316 315 318 318 319 319 319 320 320 320 319
320 325 324 330 331 337 331 333 334 337 339 335 340 339 336 339 340 340 342 348 345 344 339 337 337 336 333 330 330 328 324 321 315 314 316 318 318 317 316 317 316 314 314 314
317 322 327 333 334 334 336 334 336 337 343 339 342 347 346 343 340 339 341 346 342 339 338 337 334 332 331 330 329 327 322 316 313 315 314 316 317 315 313 312 314 314 315 315
317 317 325 331 337 338 333 333 337 337 348 341 346 347 344 344 344 339 346 346 340 339 338 334 332 331 331 330 328 322 316 313 313 314 316 315 315 311 308 309 313 313 314 310
320 322 328 334 336 335 332 334 336 337 337 344 347 346 345 342 342 345 346 344 339 336 334 332 331 331 329 327 320 315 315 311 312 313 313 314 311 309 310 308 307 307 308 309
318 324 329 334 336 338 334 335 339 335 339 346 345 346 345 341 340 343 342 337 333 332 331 330 330 328 324 318 315 315 310 312 315 313 310 310 311 311 311 310 311 311 311 311
336 326 330 333 333 329 334 336 335 336 344 346 345 344 345 339 339 337 333 332 332 332 330 328 327 323 317 315 316 315 312 316 312 311 313 314 314 313 312 312 312 312 311 311
335 332 332 332 334 333 334 335 336 342 344 345 345 344 341 337 336 333 332 332 330 328 326 322 318 316 315 315 314 309 312 317 314 313 311 312 313 313 313 312 312 312 311 310
333 333 333 333 334 335 336 336 336 341 344 345 343 343 339 337 333 333 331 328 326 323 319 317 316 313 312 313 311 308 311 316 314 314 311 312 312 311 310 310 310 310 311 311
333 332 331 333 332 331 336 338 337 341 342 343 341 336 334 338 334 332 329 325 323 318 316 315 313 312 312 311 306 308 312 313 312 309 310 311 310 310 309 309 309 310 310 309
Wind_Speed
4 5 6 7 6 4 3 4 7 9 8 9 15 7 20 25 22 20 23 25 30 35 27 28 27 26 26 24 24 23 21 16 21 22 22 21 14 10 12 12 12 9 10 13
4 4 8 2 3 3 2 5 12 8 6 15 8 5 17 20 26 22 20 25 31 24 30 30 29 29 28 24 22 21 24 19 19 25 25 24 21 18 16 12 11 15 14 14
6 7 5 2 6 6 3 4 9 8 5 3 7 3 7 9 9 16 19 32 28 28 27 27 32 32 31 30 20 20 16 21 15 19 25 25 26 22 18 15 15 11 12 13
5 5 5 5 7 5 8 3 10 4 5 4 3 3 7 5 9 12 24 32 36 32 26 25 32 29 31 31 26 19 14 11 13 13 21 25 22 20 15 18 17 16 15 15
8 3 1 5 9 5 12 7 9 13 6 5 1 5 5 5 6 7 19 33 38 29 15 3 9 14 25 28 30 26 22 20 12 11 16 18 18 16 15 17 16 15 13 14
6 0 2 5 3 5 9 7 6 4 4 3 4 4 3 4 8 4 13 21 10 14 11 9 15 15 17 13 22 28 32 27 21 15 17 14 13 15 18 16 15 12 10 9
8 7 4 2 7 2 4 6 3 3 5 5 5 5 6 9 4 2 12 15 15 16 25 25 25 21 12 14 14 17 26 29 22 16 16 12 14 14 13 14 13 11 9 10
6 7 6 3 7 8 5 8 5 5 4 3 5 3 1 5 5 11 16 21 20 18 21 28 24 13 5 11 9 8 13 13 16 11 8 10 9 7 7 8 9 7 6 6
5 7 3 3 2 5 3 3 3 7 3 4 2 1 2 4 3 7 7 16 14 15 21 26 20 14 12 10 14 6 11 21 20 8 11 9 9 10 11 9 10 11 12 12
6 5 5 6 1 3 5 4 3 3 4 2 4 3 5 4 7 6 8 13 19 17 15 19 15 8 6 8 10 25 25 14 16 13 15 14 13 13 12 11 14 13 14 14
7 4 8 2 3 5 4 1 5 6 3 5 4 6 5 9 11 12 12 21 15 10 14 15 7 5 2 9 12 9 25 36 9 8 10 9 9 9 11 13 15 16 17 18
9 6 8 11 6 5 5 8 8 4 4 2 4 5 4 10 12 11 19 19 11 9 8 13 10 10 9 18 18 18 28 18 11 8 6 8 11 14 16 17 19 20 21 22
8 1 3 11 8 2 4 3 4 6 4 6 6 4 3 5 7 12 12 13 15 14 13 13 14 10 16 23 25 21 16 11 9 5 8 11 14 16 17 18 19 19 19 19
17 5 8 8 8 3 4 2 3 6 4 6 5 7 6 10 9 13 15 15 18 19 18 18 15 13 15 16 15 14 10 6 2 8 13 17 16 15 15 15 15 15 16 17
9 9 6 6 6 5 3 5 6 5 7 8 7 10 16 20 15 21 21 16 17 20 21 18 18 19 16 12 9 6 3 3 8 14 15 14 14 15 13 10 12 13 14 13
5 6 5 4 3 4 4 4 4 2 4 7 7 0 7 15 22 19 22 19 19 22 21 19 20 19 16 13 10 6 3 5 9 11 11 12 11 10 9 11 12 12 13 14
3 7 4 5 2 4 2 3 2 4 1 8 7 8 7 7 18 25 27 22 21 23 18 17 15 15 15 12 8 3 7 11 14 15 12 9 10 11 13 13 13 14 17 18
4 2 3 4 3 3 5 2 5 7 1 4 7 8 16 17 16 21 28 22 21 22 21 18 17 18 13 8 2 8 11 14 14 13 13 12 12 13 14 13 15 17 18 20
7 6 4 5 3 4 2 3 8 7 4 6 12 9 13 14 13 10 21 20 20 21 20 16 17 12 9 3 6 10 14 14 11 9 10 12 13 15 14 14 15 17 19 21
5 5 5 3 5 6 8 3 12 5 0 7 12 18 24 19 4 4 21 22 22 19 19 21 16 10 3 2 8 12 11 8 6 5 8 10 12 16 17 14 12 14 17 20
3 4 7 3 2 6 5 6 8 7 7 20 25 31 28 7 7 26 28 24 23 25 24 18 12 5 1 4 7 8 6 3 5 8 8 8 13 14 15 15 17 18 18 19
5 6 4 3 4 3 10 2 11 8 16 36 29 36 28 13 20 32 32 33 31 27 22 15 9 6 3 3 4 2 2 5 7 7 8 12 15 16 18 16 15 15 14 16
1 5 4 8 8 5 32 11 10 19 29 28 34 33 34 28 36 37 36 33 28 22 18 14 9 7 4 2 1 1 4 7 10 11 10 10 11 11 12 13 12 13 15 15
1 5 3 1 4 4 22 15 14 22 34 36 39 41 32 37 41 39 34 29 26 22 16 13 9 6 5 4 1 2 5 6 6 6 7 6 7 6 7 9 11 11 13 14
3 2 2 3 3 11 10 21 24 25 33 35 35 39 38 40 39 37 32 28 23 19 15 11 6 5 6 4 2 3 4 5 3 4 4 5 6 6 6 6 8 11 13 13
5 5 4 5 7 3 11 25 26 32 35 36 36 32 31 36 39 34 30 26 23 21 17 11 7 6 6 4 3 6 7 7 5 4 6 5 7 9 11 8 9 8 12 14
Wind_Direction
14 51 257 243 199 195 257 217 226 231 217 180 208 163 180 191 199 198 198 211 210 216 219 224 220 223 221 224 233 238 242 251 247 253 254 254 264 265 264 269 274 294 279 276
12 232 253 259 271 293 3 312 291 276 183 183 153 212 184 186 205 197 188 208 214 212 216 219 219 222 222 222 229 235 241 244 250 253 258 267 276 287 284 281 283 272 269 278
179 238 19 358 319 354 317 216 284 252 75 39 114 30 171 209 212 204 193 202 204 211 205 212 212 215 221 221 225 236 232 241 254 264 259 262 266 276 297 317 314 297 288 283
236 266 236 284 279 126 293 216 275 208 112 197 121 243 222 179 204 170 177 196 207 209 207 208 221 217 213 224 230 236 239 234 248 265 269 264 267 285 304 311 307 306 299 305
231 178 174 241 237 152 254 260 264 263 151 100 357 102 266 152 186 184 186 195 205 200 206 320 242 230 232 228 233 242 248 241 251 265 276 268 272 303 313 306 303 298 300 298
219 191 188 233 315 203 263 306 40 38 83 66 217 141 343 222 210 189 192 201 164 191 178 267 285 234 241 271 257 247 244 245 251 265 282 280 286 292 286 291 307 316 319 319
332 289 273 196 314 24 104 59 317 2 14 211 309 68 230 289 331 201 170 148 170 180 196 208 220 227 255 291 297 255 271 250 244 252 268 276 273 286 303 311 314 316 310 311
183 311 192 170 189 221 230 157 167 190 202 239 329 46 272 301 21 110 160 166 187 196 199 223 220 210 316 266 272 245 342 250 230 252 254 251 258 267 274 284 298 302 320 332
158 263 282 169 243 134 275 203 202 107 22 83 277 88 33 328 50 48 102 132 178 208 208 213 230 260 277 231 238 253 266 309 349 214 205 215 232 250 261 274 279 279 288 286
223 289 239 276 185 280 168 165 52 355 131 136 298 210 208 199 147 164 185 173 187 199 212 218 232 275 198 226 260 245 231 258 303 242 229 233 238 254 267 278 281 283 288 292
149 139 260 172 198 223 338 5 31 115 106 150 165 258 185 179 186 187 193 184 167 142 205 229 224 147 209 261 217 244 223 218 230 232 242 243 261 274 286 290 290 294 295 293
193 163 242 235 242 239 199 211 167 135 216 103 143 263 150 180 183 169 188 178 148 129 158 150 160 150 134 139 177 160 166 186 210 246 276 295 300 301 301 300 300 299 296 297
172 246 277 306 350 358 221 164 133 119 92 187 145 231 218 153 152 203 202 159 133 127 142 142 158 166 129 141 146 147 161 195 230 281 316 313 316 317 314 313 311 310 311 310
150 141 165 215 215 181 313 217 181 121 120 167 215 144 182 172 179 194 190 154 129 120 123 122 123 133 145 150 161 173 173 179 289 328 326 327 323 321 323 319 315 317 317 319
142 198 170 228 227 170 218 251 186 181 166 149 205 185 181 184 176 188 187 190 161 144 143 149 154 155 154 154 154 142 115 352 342 339 335 328 326 331 331 328 335 337 335 339
299 200 137 203 235 217 233 22 114 83 129 78 100 161 115 143 160 168 176 176 171 160 159 156 154 155 156 158 157 152 98 2 345 341 336 338 336 336 340 349 345 342 341 341
139 144 108 213 163 133 16 181 136 119 72 144 149 213 145 157 165 176 175 176 167 169 167 163 167 171 168 164 160 101 16 359 351 352 354 349 351 353 4 360 349 351 349 350
178 89 93 140 98 190 235 214 208 126 80 148 113 147 177 178 177 186 181 173 163 168 167 171 176 171 168 156 89 15 1 352 350 353 355 3 7 13 2 10 10 17 20 20
177 134 80 126 154 267 234 174 149 141 213 212 137 125 118 136 133 138 174 181 170 170 170 178 171 168 158 127 18 346 336 336 347 10 25 30 29 19 10 17 37 40 35 32
79 65 113 124 135 187 227 202 134 99 191 182 147 139 140 151 123 222 187 185 178 184 186 177 176 173 178 358 333 326 328 341 349 1 27 20 30 19 19 20 39 38 38 40
58 25 147 143 136 288 239 205 133 102 224 157 160 155 159 159 179 175 182 183 182 174 174 176 171 174 235 315 320 319 338 355 38 49 35 16 31 37 36 48 64 62 57 46
176 139 161 106 109 189 171 108 165 169 161 163 168 166 162 166 153 162 174 170 168 166 166 171 178 184 195 289 309 338 36 92 74 49 48 75 68 56 53 66 54 47 38 33
199 171 197 175 203 219 175 200 164 160 159 166 165 169 173 165 159 162 160 162 165 171 170 174 189 184 181 203 170 30 115 107 92 84 85 72 60 50 41 38 31 21 20 14
251 35 218 72 262 237 158 161 171 158 162 168 176 176 181 163 164 158 158 162 168 167 169 178 178 169 168 159 143 114 142 139 132 94 64 65 47 33 25 16 12 16 11 11
211 9 319 285 345 83 119 160 166 165 166 170 174 179 173 167 160 160 162 166 165 164 169 169 177 166 158 155 127 133 148 159 130 77 38 74 40 16 11 358 5 11 4 351
183 186 178 226 213 146 169 143 159 161 163 170 168 161 168 169 163 167 166 167 165 165 163 163 158 151 146 140 133 141 135 123 94 71 92 52 32 33 17 29 28 11 359 357